User: anonymous   Login
Location: Unspecified
(0.0000°N, 0.0000°E)
Time: 10:18:43
(UTC+00:00)
Language:

CUTE-I - Orbit

View from above orbital plane
View from above orbital plane
View from above satellite
View from above satellite

Ground track
Ground track

The orbit data is extracted from the following two-line orbital elements,

1 27844U 03031E   17294.93529480 +.00000073 +00000-0 +52616-4 0  9999
2 27844 098.6903 302.1011 0009488 347.4042 012.6898 14.22068457742290
Epoch (UTC): 21 October 2017 22:26:49
Eccentricity: 0.0009488
inclination: 98.6903°
perigee height: 811 km
apogee height: 825 km
right ascension of ascending node: 302.1011°
argument of perigee: 347.4042°
revolutions per day: 14.22068457
mean anomaly at epoch: 12.6898°
orbit number at epoch: 74229

The dashed part of the orbit path shows where the satellite is in the earth's shadow,  

DLR